Home > Weather > Kleve > Past weeks

Flag for Germany Past Weather in Kleve, North Rhine-Westphalia, Germany — Yesterday and Last 2 Weeks

Now
59 °F

Fog.


Feels Like: 58 °F
Forecast: 56 / 71 °F
Wind: 6 mph from Northeast

Location: Volkel

Current Time: May 31, 2016 at 4:10:55 AM

Latest Report: May 31, 2016 at 3:25 AM


Visibility: 2 mi

Pressure: 29.65 "Hg

Humidity: 100%

Dew Point: 59 °F

Location of KleveLocation

Past Weather in Kleve — Graph

°F

Kleve Temperature Yesterday

Maximum temperature yesterday: 66 °F (at 2:59 PM)
Minimum temperature yesterday: 59 °F (at 9:25 AM)
Average temperature yesterday: 62 °F

High & Low Weather Summary for the Past Weeks

 TemperatureHumidityPressure
High75 °F (May 21, 4:55 PM)100% (May 20, 12:25 AM)30.12 "Hg (May 20, 12:25 AM)
Low37 °F (May 16, 5:25 AM)44% (May 21, 5:25 PM)29.59 "Hg (May 30, 6:55 PM)
Average58 °F81%29.90 "Hg
* Reported May 16 2:25 AM — May 31 2:55 AM, Kleve, Weather by CustomWeather, © 2016

Note: Actual official high and low records may vary slightly from our data, if they occured in-between our weather recording intervals... More about our weather records

Advertising

Kleve Weather History for the Previous 24 Hours

Scroll right to see more
 ConditionsComfort  
Time TempWeatherWind HumidityBarometerVisibility
2:55 AM
Tue, May 31
59 °FFog.7 mph100%29.65 "Hg1 mi
2:25 AM61 °FFog.7 mph100%29.65 "Hg1 mi
1:55 AM61 °FFog.6 mph100%29.65 "Hg1 mi
1:25 AM61 °FFog.5 mph100%29.65 "Hg1 mi
1:03 AM63 °FFog.6 mph94%29.65 "Hg2 mi
12:55 AM63 °FFog.6 mph94%29.65 "Hg3 mi
12:25 AM63 °FFog.5 mph94%29.65 "Hg2 mi
11:59 PM
Mon, May 30
63 °FFog.7 mph94%29.62 "Hg3 mi
11:55 PM61 °FFog.7 mph100%29.62 "Hg3 mi
11:25 PM61 °FFog.5 mph100%29.62 "Hg4 mi
10:55 PM61 °FLight rain. Passing clouds.7 mph100%29.62 "HgN/A
10:25 PM61 °FRain. Broken clouds.7 mph100%29.62 "HgN/A
9:55 PM63 °FLight rain. Broken clouds.8 mph94%29.59 "HgN/A
9:25 PM63 °FRain. Partly sunny.12 mph94%29.62 "HgN/A
8:55 PM63 °FRain showers. Broken clouds.14 mph100%29.59 "Hg6 mi
8:25 PM64 °FThunderstorms. Fog.8 mph94%29.59 "Hg6 mi
7:55 PM64 °FThunderstorms. Fog.6 mph94%29.59 "Hg3 mi
7:25 PM63 °FLight rain. Partly sunny.9 mph100%29.59 "Hg1 mi
6:55 PM63 °FDrizzle. Broken clouds.8 mph100%29.59 "Hg2 mi
6:01 PM63 °FStrong thunderstorms. Broken clouds.13 mph94%29.62 "Hg1 mi
5:25 PM63 °FThunderstorms. Partly sunny.7 mph100%29.62 "Hg1 mi
4:55 PM64 °FThunderstorms. Partly sunny.7 mph94%29.62 "Hg2 mi
4:25 PM64 °FThunderstorms. Broken clouds.6 mph94%29.62 "Hg3 mi
3:55 PM64 °FLight rain. Mostly cloudy.6 mph94%29.62 "Hg3 mi
3:25 PM64 °FFog.5 mph94%29.65 "Hg4 mi
2:59 PM66 °FFog.7 mph94%29.62 "Hg4 mi
2:25 PM64 °FFog.6 mph94%29.65 "Hg3 mi
2:03 PM63 °FRain showers. Broken clouds.7 mph94%29.65 "Hg3 mi
12:55 PM63 °FFog.7 mph94%29.65 "Hg3 mi
12:25 PM61 °FFog.9 mph94%29.65 "Hg3 mi
11:55 AM61 °FFog.9 mph94%29.65 "Hg2 mi
11:25 AM61 °FThunderstorms. Fog.7 mph94%29.65 "Hg3 mi
11:04 AM61 °FThunderstorms. Partly sunny.8 mph94%29.68 "Hg5 mi
10:25 AM59 °FThunderstorms. Cloudy.6 mph100%29.68 "HgN/A
9:55 AM59 °FThunderstorms. Broken clouds.8 mph100%29.68 "Hg2 mi
9:25 AM59 °FThunderstorms. Broken clouds.10 mph100%29.68 "Hg3 mi
8:55 AM61 °FDrizzle. Broken clouds.13 mph94%29.65 "Hg3 mi
8:25 AM61 °FThunderstorms. Mostly cloudy.16 mph94%29.65 "Hg2 mi
7:55 AM61 °FRain. Broken clouds.9 mph94%29.68 "Hg2 mi
7:25 AM61 °FSprinkles. Partly sunny.6 mph94%29.68 "Hg3 mi
6:55 AM61 °FFog.6 mph94%29.68 "Hg3 mi
6:25 AM61 °FFog.9 mph94%29.68 "Hg3 mi
5:55 AM61 °FFog.8 mph94%29.68 "Hg3 mi
5:25 AM61 °FFog.7 mph94%29.68 "Hg3 mi
5:01 AM61 °FFog.7 mph94%29.71 "Hg3 mi
4:25 AM61 °FFog.7 mph94%29.71 "Hg2 mi
Weather by CustomWeather, © 2016

See weather overviewHow to use our weather pages